Location: Jaite
(41.2884°N, 81.5737°W)
Time: 17:17:12
(UTC+00:00)

SKYMED 2 - Pass Details

Date: 18 January 2020
Orbit: 621 x 623 km, 97.9° (Epoch: 26 February)

Event Time Altitude Azimuth Distance (km) Brightness Sun altitude
Rises 10:14:24 0° 152° (SSE) 2,891 7.4 -28.6°
Reaches altitude 10° 10:16:38 10° 147° (SSE) 1,989 6.6 -28.2°
Maximum altitude 10:20:48 49° 73° (ENE) 808 4.4 -27.4°
Enters shadow 10:21:40 42° 36° (NE) 893 4.5 -27.3°
